Regional Weather Roundup
Issued by NWS

Home | Current Version | Previous Version | Graphics & Text | Print | Product List | Glossary On
Versions: 1 2 3 4 5 6 7 8 9 10 11 12 13 14 15 16 17 18 19 20 21 22 23 24 25 26 27 28 29 30 31 32 33 34 35 36 37 38 39 40 41 42 43 44 45 46 47 48 49 50
714
ASUS45 KBOU 232207
RWRCO

WEATHER ROUNDUP FOR COLORADO
NATIONAL WEATHER SERVICE DENVER/BOULDER CO
400 PM MDT THU MAR 23 2017

NOTE: "FAIR" INDICATES FEW OR NO CLOUDS BELOW 12000 FEET WITH NO
SIGNIFICANT WEATHER AND/OR OBSTRUCTIONS TO VISIBILITY.

COZ001>005-013-030-031-232300-
...NORTHWEST COLORADO...

CITY           SKY/WX    TMP DP  RH WIND       PRES   REMARKS
CRAIG          FAIR      56  21  25 SW16G26   29.69S
HAYDEN         FAIR      54  21  28 SE7       29.71F
MEEKER         FAIR      56  24  29 W13       29.71F
MOUNT WERNER   NOT AVBL
STEAMBOAT SPGS CLOUDY    50  25  38 SE3       29.73R
WALDEN         NOT AVBL
$$

COZ006>008-011-232300-
...WEST CENTRAL VALLEYS...

CITY           SKY/WX    TMP DP  RH WIND       PRES   REMARKS
GRAND JUNCTION PTSUNNY   56  35  45 W17       29.72R
MONTROSE       CLOUDY    44  38  79 SE15      29.80R
EAGLE          MOSUNNY   48  30  49 W15G26    29.76R
RIFLE          PTSUNNY   56  28  34 W13       29.70F
DELTA          PTSUNNY   55  32  42 E8        29.76R
NUCLA          LGT RAIN  45  37  76 SE6       29.82R
$$

COZ017>023-064>068-232300-
...SOUTHWEST COLORADO...

CITY           SKY/WX    TMP DP  RH WIND       PRES   REMARKS
DURANGO        LGT RAIN  39  35  86 W9        29.79S
CORTEZ         CLOUDY    45  34  65 NW8       29.81S
PAGOSA SPRINGS LGT SNOW  37  34  91 SW13G18   29.82R
TELLURIDE      LGT SNOW  32  32  99 CALM      29.84S VSB 1
WOLF CREEK PAS HVY SNOW  23  23 100 S12G18    29.88S VSB<1/4 WCI  12
$$

COZ009-010-012-014-032>034-037-058>063-232300-
...CENTRAL COLORADO...

CITY           SKY/WX    TMP DP  RH WIND       PRES   REMARKS
ASPEN          LGT RAIN  40  32  73 N13G22    29.78R
BUENA VISTA    CLOUDY    51  15  24 SW18G31   29.71R
COPPER MTN     LGT SNOW  32  21  64 MISG      29.89R
BERTHOUD PASS  CLOUDY    25  14  63 W14G23    29.91R WCI  13
COTTONWOOD PAS LGT SNOW  41  23  48 SW21G30   29.81R
GUNNISON       FAIR      42  31  64 SW12      29.77R
KREMMLING      FAIR      61  23  23 NW9       29.71S
LEADVILLE      FAIR      34  24  67 W6        29.81R WCI  29
SALIDA         CLOUDY    56  11  16 SW22G29   29.76R
SUNLIGHT       PTSUNNY   30  23  74 SW3       29.88S
WILKERSON PASS CLOUDY    41   5  22 S8G23     29.85R
$$

COZ069>075-232300-
...SAN LUIS VALLEY/SANGRE DE CRISTO MOUNTAINS...

CITY           SKY/WX    TMP DP  RH WIND       PRES   REMARKS
ALAMOSA        FAIR      56  19  23 SW29G39   29.69R
LA VETA PASS   NOT AVBL
SAGUACHE       FAIR      52  21  30 W15       29.71S
$$

COZ035-036-038>040-232300-
...NORTHERN COLORADO FRONT RANGE...

CITY           SKY/WX    TMP DP  RH WIND       PRES   REMARKS
DENVER INTL AP PTSUNNY   76   7   7 SW21G36   29.52F
DMNS CITY PARK   N/A     73   7   7 SW21G31   29.53S
AURORA         PTSUNNY   74   3   6 SW22G37   29.54F
FRONT RANGE AP PTSUNNY   75  10   8 S16G28    29.55F
ERIE MUNI ARPT FAIR      73   3   6 S20G29    29.53S
BOULDER MUN AP FAIR      72  16  12 SW10G16   29.53R
CENTENNIAL     FAIR      71   2   6 SW23G35   29.56F
BROOMFIELD     PTSUNNY   72  10   9 SW17G29   29.56S
FORT COLLINS   FAIR      72  13  10 W5        29.52F
LONGMONT       FAIR      74  12   9 SW8       29.53S
$$

COZ041-046-047-076>085-087-088-232300-
...PIKES PEAK/PALMER DIVIDE AND SOUTHERN FOOTHILLS...

CITY           SKY/WX    TMP DP  RH WIND       PRES   REMARKS
COLO. SPRINGS  FAIR      72  10   9 SW25G44   29.58F
A. F. ACADEMY  FAIR      67   9  10 SW15G22   29.59F
SCHRIEVER AFB  FAIR      68  10  10 SW25G33   29.59F
ELLICOTT         N/A    N/A N/A N/A W22G33    29.58F
FALCON         FAIR      68   8   9 SW23G35   29.63F
FORT CARSON    NOT AVBL
LIMON          FAIR      71  15  11 S13G29    29.56F
MONUMENT HILL  FAIR      64  10  12 SW22G32   29.64F
TRINIDAD       FAIR      75  13   9 S29G39    29.55F
$$

COZ042>045-048>051-090-091-232300-
...NORTHEAST COLORADO...

CITY           SKY/WX    TMP DP  RH WIND       PRES   REMARKS
GREELEY ARPT   FAIR      78   8   7 SW20G32   29.51F
AKRON          FAIR      80  12   7 SW17G28   29.54F
BURLINGTON     FAIR      83  24  11 SW14      29.51F
WRAY           NOT AVBL
STERLING       FAIR      81  23  12 SE6       29.49F
HOLYOKE        FAIR      79  43  27 E16G23    29.52F
FORT MORGAN    FAIR      78  11   8 S12G24    29.52F
$$

COZ086-089-092>099-232300-
...SOUTHEAST COLORADO...

CITY           SKY/WX    TMP DP  RH WIND       PRES   REMARKS
PUEBLO         PTSUNNY   74  15  10 W8G43     29.52R
LA JUNTA       FAIR      82  16   8 S28G43    29.48F
LAMAR          FAIR      86  24  10 S30G46    29.47F
SPRINGFIELD      N/A     81  23  11 S23G40    29.54F
$$




USA.gov is the U.S. government's official web portal to all federal, state and local government web resources and services.